Weather History for Lorain / Elyria, OH

Change the Weather History Date:

Thursday, April 3, 2014

  Actual Average (KCLE) Record (KCLE)
Temperature  
Mean Temperature 41 °F 45 °F  
Max Temperature 45 °F 54 °F 83 °F (2010)
Min Temperature 37 °F 36 °F 19 °F (1954)
Degree Days  
Heating Degree Days 24 20  
Month to date heating degree days 62  
Since 1 July heating degree days 5105  
Cooling Degree Days 0 0  
Month to date cooling degree days 0  
Year to date cooling degree days 1  
Moisture  
Dew Point 34 °F    
Average Humidity 81    
Maximum Humidity 93    
Minimum Humidity 56    
Precipitation  
Precipitation 0.99 in 0.12 in 1.21 in (1960)
Month to date precipitation 0.36  
Year to date precipitation 8.35  
Snow  
Snow 0.00 in 0.20 in - ()
Month to date snowfall 0.7  
Since 1 July snowfall 65.5  
Snow Depth -    
Sea Level Pressure  
Sea Level Pressure 29.95 in    
Wind  
Wind Speed 10 mph (ENE)    
Max Wind Speed 14 mph    
Max Gust Speed 22 mph    
Visibility 4 miles    
Events Rain    
T = Trace of Precipitation, MM = Missing Value Source: NWS Daily Summary

Daily Weather History Graph

Daily Weather History Graph

Search for Another Location

Airport:

Trip Planner

Search our weather history database for the weather conditions in past years. The results will help you decide how hot, cold, wet, or windy it might be!

Date:

Astronomy

Apr. 03, 2014 Rise Set
Actual Time 7:08 AM EDT 7:56 PM EDT
Civil Twilight 6:40 AM EDT 8:24 PM EDT
Nautical Twilight 6:07 AM EDT 8:57 PM EDT
Astronomical Twilight 5:33 AM EDT 9:31 PM EDT
Moon 9:34 AM EDT (4/3) No Moon Set
Length of Visible Light 13h 43m
Length of Day
12h 47m
Waxing Crescent, 17% of the Moon is Illuminated
Apr 3
Waxing Crescent
Apr 7
First Quarter
Apr 15
Full
Apr 22
Last Quarter
Apr 29
New

Hourly Weather History & Observations

Time (EDT) Temp. Windchill Dew Point Humidity Pressure Visibility Wind Dir Wind Speed Gust Speed Precip Events Conditions
12:53 AM 45.0 °F 38.9 °F 30.0 °F 56% 30.16 in 10.0 mi East 12.7 mph - N/A   Overcast
1:53 AM 42.1 °F 35.7 °F 28.9 °F 60% 30.16 in 10.0 mi ENE 11.5 mph - N/A   Overcast
2:53 AM 42.1 °F 36.6 °F 30.0 °F 62% 30.14 in 10.0 mi ENE 9.2 mph - N/A   Mostly Cloudy
3:53 AM 41.0 °F 35.8 °F 30.9 °F 67% 30.13 in 10.0 mi ENE 8.1 mph - N/A   Overcast
4:53 AM 41.0 °F 34.7 °F 30.9 °F 67% 30.11 in 10.0 mi ENE 10.4 mph - N/A   Overcast
5:53 AM 39.9 °F 35.1 °F 32.0 °F 73% 30.12 in 10.0 mi East 6.9 mph - N/A   Overcast
6:53 AM 39.9 °F 34.5 °F 30.9 °F 70% 30.13 in 10.0 mi ENE 8.1 mph - N/A   Overcast
7:53 AM 39.9 °F 35.1 °F 30.0 °F 68% 30.13 in 10.0 mi ENE 6.9 mph - N/A   Overcast
8:53 AM 41.0 °F 35.2 °F 28.9 °F 62% 30.11 in 10.0 mi ENE 9.2 mph - N/A   Overcast
9:53 AM 42.1 °F 37.7 °F 28.9 °F 60% 30.08 in 10.0 mi East 6.9 mph - N/A   Mostly Cloudy
10:53 AM 39.0 °F 32.8 °F 30.9 °F 73% 30.06 in 7.0 mi ENE 9.2 mph - 0.01 in Rain Light Rain
11:53 AM 37.9 °F 31.5 °F 33.1 °F 83% 30.05 in 4.0 mi ENE 9.2 mph - 0.09 in Rain Light Rain
12:53 PM 37.9 °F 31.5 °F 33.1 °F 83% 30.03 in 2.0 mi ENE 9.2 mph - 0.08 in Rain Heavy Rain
1:13 PM 37.9 °F 29.6 °F 33.1 °F 83% 30.00 in 3.0 mi ENE 13.8 mph - 0.04 in Rain Rain
1:34 PM 37.9 °F 30.5 °F 33.1 °F 83% 29.98 in 2.5 mi ENE 11.5 mph - 0.08 in Rain Rain
1:53 PM 37.9 °F 29.6 °F 33.1 °F 83% 29.99 in 2.0 mi ENE 13.8 mph - 0.14 in Rain Rain
2:10 PM 37.9 °F 30.9 °F 34.0 °F 86% 29.96 in 1.8 mi East 10.4 mph - 0.08 in Rain Heavy Rain
2:53 PM 37.9 °F 30.5 °F 35.1 °F 89% 29.96 in 1.8 mi East 11.5 mph - 0.26 in Rain Rain
3:00 PM 39.0 °F 32.3 °F 35.1 °F 86% 29.93 in 2.0 mi East 10.4 mph - 0.01 in Rain Light Rain
3:28 PM 39.9 °F 33.9 °F 36.0 °F 86% 29.91 in 2.5 mi East 9.2 mph - 0.05 in Rain Light Rain
3:41 PM 39.9 °F 33.4 °F 37.0 °F 89% 29.89 in 2.5 mi East 10.4 mph - 0.07 in Rain Light Rain
3:53 PM 41.0 °F 34.3 °F 37.0 °F 86% 29.90 in 3.0 mi East 11.5 mph - 0.07 in Rain Light Rain
4:53 PM 41.0 °F 33.9 °F 37.9 °F 89% 29.85 in 2.5 mi ENE 12.7 mph - 0.03 in Rain Light Rain
5:24 PM 39.9 °F 32.9 °F 37.0 °F 89% 29.83 in 2.0 mi East 11.5 mph 21.9 mph 0.05 in Rain Rain
5:53 PM 39.9 °F 33.9 °F 37.0 °F 89% 29.84 in 1.8 mi ENE 9.2 mph - 0.11 in Rain Rain
6:35 PM 39.9 °F 33.9 °F 37.0 °F 89% 29.83 in 1.0 mi East 9.2 mph - 0.10 in Rain Rain
6:53 PM 39.9 °F 35.1 °F 37.0 °F 89% 29.85 in 1.0 mi ENE 6.9 mph - 0.14 in Rain Light Rain
7:26 PM 39.9 °F 35.8 °F 37.9 °F 93% 29.83 in 1.0 mi ENE 5.8 mph - 0.03 in Rain Light Rain
7:53 PM 39.9 °F 35.8 °F 37.0 °F 89% 29.83 in 1.5 mi East 5.8 mph - 0.05 in   Overcast
8:04 PM 41.0 °F 36.4 °F 37.9 °F 89% 29.81 in 2.0 mi East 6.9 mph - N/A   Overcast
8:53 PM 42.1 °F 39.2 °F 37.9 °F 85% 29.82 in 2.5 mi ENE 4.6 mph - N/A   Overcast
9:19 PM 42.1 °F 39.2 °F 37.9 °F 85% 29.81 in 3.0 mi NE 4.6 mph - N/A   Overcast
9:31 PM 42.1 °F 38.4 °F 37.9 °F 85% 29.82 in 2.5 mi NE 5.8 mph - N/A   Overcast
9:53 PM 41.0 °F 36.4 °F 37.9 °F 89% 29.83 in 1.8 mi NE 6.9 mph - N/A   Overcast
10:30 PM 41.0 °F 36.4 °F 37.9 °F 89% 29.80 in 2.5 mi ENE 6.9 mph - 0.02 in Rain Light Rain
10:49 PM 39.2 °F 35.0 °F 37.4 °F 93% 29.80 in 3.0 mi ENE 5.8 mph - 0.03 in Rain Light Rain
11:53 PM 39.9 °F 35.8 °F 37.0 °F 89% 29.79 in 4.0 mi ENE 5.8 mph - 0.01 in   Overcast